Location: Lavardac
(44.1778°N, 0.2983°E)
Time: 17:45:36
(UTC+00:00)

ATLAS 3B CENTAUR R/B - Pass Details

Date: 06 June 2020
Orbit: 220 x 4357 km, 28.1° (Epoch: 08 July)

Event Time Altitude Azimuth Distance (km) Brightness Sun altitude
Rises 20:57:50 0° 259° (W) 7,947 7.6 -11.4°
Reaches altitude 10° 21:04:51 10° 253° (WSW) 6,309 7.0 -12.3°
Maximum altitude 21:19:50 34° 198° (SSW) 2,903 4.6 -13.9°
Enters shadow 21:25:33 19° 147° (SSE) 2,873 4.3 -14.5°
